Find Starlink 5458

NORAD ID: 54764 Int'l Des: 2022-175 Owner: SPXS Country: US Constellation: starlink operational
LEOCIRCULAR

实时位置

正在加载3D地球...

关于 Starlink 5458

正在加载描述...

即将过境

Passes for default location (London). Set your location on the main map for personalized predictions.

高度历史

Loading altitude history...

两行轨道根数

1 54764U 22175G 26126.07724881 -.00000943 00000-0 -41184-4 0 9997
2 54764 53.2156 146.4285 0001200 83.6541 276.4587 15.08826111188582
Epoch: May 6, 2026 • Age: 9 hours

当前状态

高度 542.3 km
速度 7.59 km/s
星下点 -7.97°S, 53.15°W
发射日期 Dec 17, 2022
运行时间 3.3 years
类型 internet

技术详情

分类 Payload
质量 305.00 kg
干质量 290.00 kg
总质量 305.00 kg
长度 0.20 m
直径 2.80 m
跨度 9.00 m
形状 Box + pan
制造商 SPXS
平台类型 Starlink
阶段状态 In Orbit
所有者/国家 SPXS/US

Most Searched